FENGYUN 1C DEB

Satellite information

Favourite Embed

Satellite Type and Status

DEBRISIN ORBIT

Key statistics

Satellite FENGYUN 1C DEB at a glance.

Uptime

9493

Days in orbit

Revolutions

≈ 14.2

Per day

Orbit

SSO

Sun Synchronous Orbit

Inclination

98.9

Latest

Satellite identification and parameters

Extended collection of information and parameters for FENGYUN 1C DEB.

Object identification

Identified? True

Debris? True

Object name: FENGYUN 1C DEB

International designator: 1999-025AAA

Object number (NORAD): 30313

Object ID (CCSDS): 30313

Country: PEOPLES REPUBLIC OF CHINA (PRC)

Current information (Y/N): Y

RCS size: SMALL

Orbital parameters

Period: 101.166 minutes

Inclination: 98.8778 deg

SMA: 7192.022 km

Apoapsis: 856.039 km

Periapsis: 771.734 km

RAAN: 209.3688 deg

Eccentricy: 0.005861

Argument of periapsis: 252.8078 deg

Mean anomaly: 129.0678 deg

Mean motion: 14.23397727 rev/day

Mean motion (dot): 0.0000458 rev/day2

B* drag term: 0.0020017 1/REarth

Two-line elements (TLE)

Creation date: May 6, 2025, 3:54 a.m.

Reference frame: TEME

Reference center: EARTH

Epoch: May 5, 2025, 11:31 a.m. UTC

TLE line 0: 0 FENGYUN 1C DEB

TLE line 1: 1 30313U 99025AAA 25125.48006771 .00004580 00000-0 20017-2 0 9992

TLE line 2: 2 30313 98.8778 209.3688 0058610 252.8078 129.0678 14.23397727939400

Live tracking on map

Real-time ground track for satellite FENGYUN 1C DEB.

In-orbit conjunctions

A list of the most updated potential collisions computed for object FENGYUN 1C DEB.

Target Orbit TCA Probability of collision Miss distance Type
DELTA 1 DEB SSO 2025-01-23 22:22:00 0.000105638 98.0 (m) DEBRIS
PICOSAT 9 LEO 2024-12-12 09:18:58 0.0001577861 242.0 (m) PAYLOAD
CZ-6A DEB LEO 2024-12-11 03:37:58 0.0001767501 957.0 (m) DEBRIS

Associated space launch

Chinese polar orbiting meteorological satellite

FENGYUN 1C DEB was lifted into orbit during the mission ‘Long March 4B | Feng Yun 1C’, on board a Long March 4B space rocket.

The launch took place on May 10, 1999, 1:33 a.m. from Launch Complex 7.

For more information about the launch, click the button.

Launch to space Long March 4B | Feng Yun 1C
Long March 4B | Feng Yun 1C

Agency: N/A

Status: Launch Successful

Launch date: May 10, 1999, 1:33 a.m. UTC

Rocket: Long March 4B

Launch pad: Launch Complex 7

Location: Taiyuan Satellite Launch Center, People's Republic of China

...

Latest news about this satellite

There are no fresh news available about this satellite. Check back as we update our databases every day.


Newsletter sign-up

Weekly statistics, charts and insights to help you stay on top of the space industry.